�N����,����,�~����,�C��,���x,�C��,����,���ϕ���,�ő�u�ԕ���,�ő厞����,���˗�,�I�_���x,�n�����x,�ő啗���N��,DTYPE
"17/06/23","00:10",0.0,19.3,86.9,1003.6,325.5,1.1,2.5,331.1,0.00,17.1,21.5,"00:06:16",1
"17/06/23","00:20",0.0,19.4,86.7,1003.6,335.0,1.1,1.9,337.9,0.00,17.2,21.6,"00:12:40",1
"17/06/23","00:30",0.0,19.2,87.1,1003.6,349.6,0.7,1.3,352.3,0.00,17.0,21.4,"00:25:04",1
"17/06/23","00:40",0.0,19.0,87.7,1003.8,304.4,0.3,1.1,332.2,0.00,17.0,21.4,"00:30:56",1
"17/06/23","00:50",0.0,18.7,88.8,1003.8,316.0,0.3,0.9,344.8,0.00,16.9,21.4,"00:49:44",1
"17/06/23","01:00",0.0,18.3,89.2,1003.6,258.8,0.2,0.5,296.5,0.00,16.5,21.5,"00:50:08",1
"17/06/23","01:10",0.0,18.0,90.6,1003.6,318.3,0.6,1.0,315.8,0.00,16.5,21.2,"01:03:28",1
"17/06/23","01:20",0.0,18.1,90.9,1003.6,321.6,0.6,1.3,344.2,0.00,16.6,21.2,"01:13:12",1
"17/06/23","01:30",0.0,17.9,91.3,1003.4,290.6,0.5,0.6,273.1,0.00,16.5,21.0,"01:25:20",1
"17/06/23","01:40",0.0,17.8,91.6,1003.4,279.7,0.5,0.9,317.6,0.00,16.5,21.1,"01:32:16",1
"17/06/23","01:50",0.0,17.9,91.8,1003.6,286.8,0.7,1.0,265.5,0.00,16.6,21.0,"01:43:28",1
"17/06/23","02:00",0.0,17.9,92.2,1003.6,323.0,0.6,1.1,336.1,0.00,16.7,20.9,"01:51:28",1
"17/06/23","02:10",0.0,17.8,92.4,1003.6,291.7,0.6,1.2,318.9,0.00,16.6,20.9,"02:09:36",1
"17/06/23","02:20",0.0,17.9,92.5,1003.1,322.0,1.0,1.6,321.7,0.00,16.7,21.1,"02:12:56",1
"17/06/23","02:30",0.0,18.0,92.5,1003.4,322.0,1.0,2.1,334.2,0.00,16.8,20.8,"02:20:02",1
"17/06/23","02:40",0.0,18.0,92.0,1003.1,275.1,0.3,1.9,341.0,0.00,16.7,20.9,"02:30:08",1
"17/06/23","02:50",0.0,17.8,92.4,1003.4,316.8,0.3,1.1,330.4,0.00,16.6,20.6,"02:48:56",1
"17/06/23","03:00",0.0,17.7,92.5,1003.4,297.7,0.6,1.1,318.0,0.00,16.5,20.7,"02:52:16",1
"17/06/23","03:10",0.0,17.7,92.7,1003.4,284.2,0.6,1.1,298.2,0.00,16.5,20.6,"03:09:40",1
"17/06/23","03:20",0.0,17.6,92.4,1002.6,292.5,0.3,0.6,284.7,0.00,16.4,20.6,"03:10:08",1
"17/06/23","03:30",0.0,17.4,92.9,1003.4,271.7,0.3,0.6,243.2,0.00,16.3,20.5,"03:23:20",1
"17/06/23","03:40",0.0,17.4,93.3,1003.1,282.8,0.6,1.0,298.3,0.00,16.3,20.5,"03:31:28",1
"17/06/23","03:50",0.0,17.4,93.6,1003.4,315.7,0.7,1.2,340.6,0.00,16.4,20.5,"03:49:12",1
"17/06/23","04:00",0.0,17.4,93.8,1003.4,311.4,0.8,1.9,317.9,0.00,16.4,20.5,"03:58:48",1
"17/06/23","04:10",0.0,17.4,93.7,1003.1,298.1,0.7,1.4,322.2,0.00,16.4,20.6,"04:03:36",1
"17/06/23","04:20",0.0,17.4,93.7,1003.6,278.8,0.7,0.9,293.5,0.00,16.4,20.4,"04:10:48",1
"17/06/23","04:30",0.0,17.2,93.5,1003.6,292.7,0.6,0.9,322.4,0.00,16.2,20.3,"04:20:24",1
"17/06/23","04:40",0.0,17.0,93.6,1003.6,280.4,0.5,0.6,266.8,0.00,16.0,20.3,"04:33:36",1
"17/06/23","04:50",0.0,16.9,94.0,1003.6,289.8,0.6,1.0,307.7,0.00,16.0,20.1,"04:47:36",1
"17/06/23","05:00",0.0,17.0,94.2,1003.8,307.8,0.8,1.3,316.6,0.00,16.1,20.2,"04:56:40",1
"17/06/23","05:10",0.0,17.2,94.3,1003.6,329.5,1.0,1.6,327.4,0.00,16.3,20.3,"05:01:12",1
"17/06/23","05:20",0.0,17.2,94.3,1003.4,298.7,0.8,1.7,324.5,0.00,16.3,20.2,"05:15:04",1
"17/06/23","05:30",0.0,17.3,94.3,1003.4,265.4,0.6,0.9,246.4,0.00,16.4,20.2,"05:21:44",1
"17/06/23","05:40",0.0,17.5,94.4,1003.8,275.4,0.6,1.0,262.7,0.00,16.6,20.0,"05:37:12",1
"17/06/23","05:50",0.0,17.7,94.5,1003.6,325.6,0.8,1.6,320.7,0.02,16.8,20.1,"05:46:24",1
"17/06/23","06:00",0.0,17.9,94.1,1003.8,335.9,0.7,1.3,342.0,0.02,17.0,20.4,"05:51:52",1
"17/06/23","06:10",0.0,18.0,93.8,1003.6,335.0,0.7,1.3,343.9,0.02,17.0,20.3,"06:09:20",1
"17/06/23","06:20",0.0,18.3,93.5,1003.6,333.9,1.0,2.0,347.1,0.03,17.3,20.3,"06:12:40",1
"17/06/23","06:30",0.0,18.7,92.7,1003.4,280.8,0.7,1.3,294.4,0.04,17.5,20.2,"06:20:08",1
"17/06/23","06:40",0.0,19.2,91.8,1003.4,288.2,0.7,1.9,316.5,0.05,17.9,20.2,"06:32:56",1
"17/06/23","06:50",0.0,19.6,90.7,1003.4,322.0,1.1,2.2,331.1,0.07,18.1,20.2,"06:46:40",1
"17/06/23","07:00",0.0,20.6,85.7,1003.6,346.8,0.5,1.2,335.8,0.09,18.2,20.4,"06:51:36",1
"17/06/23","07:10",0.0,21.0,84.4,1003.4,10.0,0.6,1.7,345.8,0.12,18.3,20.2,"07:03:44",1
"17/06/23","07:20",0.0,21.7,80.8,1003.6,30.0,0.5,1.1,24.8,0.14,18.3,20.6,"07:19:52",1
"17/06/23","07:30",0.0,22.1,80.0,1003.6,19.9,0.5,1.2,357.9,0.16,18.5,20.6,"07:27:36",1
"17/06/23","07:40",0.0,22.6,79.5,1003.4,4.9,0.6,1.3,5.4,0.18,18.9,20.8,"07:34:40",1
"17/06/23","07:50",0.0,22.8,77.2,1003.8,22.4,0.6,1.6,18.0,0.21,18.6,21.0,"07:45:28",1
"17/06/23","08:00",0.0,23.7,74.0,1003.6,65.3,0.3,1.0,7.2,0.23,18.8,21.1,"07:59:12",1
"17/06/23","08:10",0.0,23.9,73.0,1002.9,35.1,0.3,1.4,14.5,0.25,18.8,21.2,"08:02:16",1
"17/06/23","08:20",0.0,24.1,74.2,1002.6,319.1,0.1,0.8,329.1,0.27,19.3,21.4,"08:16:24",1
"17/06/23","08:30",0.0,24.6,71.8,1002.6,203.8,0.3,1.0,193.8,0.30,19.2,21.4,"08:28:32",1
"17/06/23","08:40",0.0,24.6,70.3,1001.9,24.1,0.7,1.7,26.3,0.31,18.9,21.6,"08:35:28",1
"17/06/23","08:50",0.0,25.1,67.7,1002.4,80.5,0.7,1.6,7.3,0.34,18.8,21.8,"08:41:28",1
"17/06/23","09:00",0.0,25.6,68.3,1002.2,68.7,0.8,1.6,85.4,0.36,19.4,22.1,"08:54:40",1
"17/06/23","09:10",0.0,26.1,66.3,1001.0,125.0,0.6,1.8,135.1,0.36,19.4,22.2,"09:00:32",1
"17/06/23","09:20",0.0,25.9,65.4,1001.2,33.6,0.7,1.8,49.2,0.38,19.0,22.5,"09:12:24",1
"17/06/23","09:30",0.0,26.6,64.2,1001.2,123.7,0.7,1.9,91.5,0.42,19.3,22.8,"09:22:00",1
"17/06/23","09:40",0.0,26.9,62.0,1001.7,55.6,0.7,1.6,16.1,0.43,19.0,23.1,"09:31:36",1
"17/06/23","09:50",0.0,27.1,62.9,1001.9,166.4,1.0,2.5,178.8,0.45,19.5,23.1,"09:48:16",1
"17/06/23","10:00",0.0,27.7,60.1,1002.4,162.0,0.5,1.6,139.4,0.47,19.3,23.4,"09:50:40",1
"17/06/23","10:10",0.0,27.6,56.1,1002.2,136.5,1.1,2.6,134.8,0.48,18.1,23.6,"10:05:52",1
"17/06/23","10:20",0.0,28.1,57.9,1002.4,140.8,0.8,1.9,317.1,0.49,19.1,23.7,"10:19:20",1
"17/06/23","10:30",0.0,28.4,55.4,1002.4,136.6,0.7,2.2,119.3,0.50,18.6,24.3,"10:28:32",1
"17/06/23","10:40",0.0,29.0,55.6,1002.4,151.7,0.8,2.2,227.1,0.52,19.3,24.4,"10:32:32",1
"17/06/23","10:50",0.0,28.9,54.0,1002.6,112.6,1.0,2.2,174.6,0.53,18.7,24.6,"10:45:28",1
"17/06/23","11:00",0.0,29.1,54.6,1002.6,338.6,0.8,2.8,350.0,0.54,19.1,24.8,"10:56:56",1
"17/06/23","11:10",0.0,29.9,53.5,1002.2,228.8,0.5,1.8,189.0,0.55,19.5,25.0,"11:09:52",1
"17/06/23","11:20",0.0,30.1,50.5,1002.4,179.9,0.7,2.4,220.3,0.56,18.7,25.3,"11:12:08",1
"17/06/23","11:30",0.0,30.0,51.2,1002.2,43.2,1.0,3.4,341.9,0.56,18.9,25.6,"11:29:28",1
"17/06/23","11:40",0.0,30.2,50.0,1001.9,3.5,0.8,2.7,339.6,0.58,18.7,25.9,"11:38:00",1
"17/06/23","11:50",0.0,30.6,48.5,1001.9,212.6,0.6,2.1,9.6,0.57,18.5,26.0,"11:41:28",1
"17/06/23","12:00",0.0,30.8,46.7,1002.2,353.9,0.8,2.2,339.5,0.59,18.1,26.2,"11:52:40",1
"17/06/23","12:10",0.0,30.5,48.5,1001.7,195.1,1.3,2.6,212.5,0.57,18.5,26.6,"12:04:56",1
"17/06/23","12:20",0.0,31.0,49.6,1001.5,159.5,1.3,2.8,182.9,0.58,19.3,26.4,"12:12:24",1
"17/06/23","12:30",0.0,30.9,46.2,1001.2,162.8,1.2,3.4,227.1,0.58,18.0,26.9,"12:28:56",1
"17/06/23","12:40",0.0,30.8,48.1,1001.7,201.1,1.6,4.1,197.9,0.58,18.6,27.1,"12:38:40",1
"17/06/23","12:50",0.0,30.9,49.6,1000.8,120.7,1.7,3.7,47.1,0.57,19.2,27.1,"12:47:28",1
"17/06/23","13:00",0.0,31.3,45.2,1000.5,210.6,1.0,2.6,228.9,0.57,18.1,27.2,"12:54:16",1
"17/06/23","13:10",0.0,31.1,46.4,1001.0,207.7,2.0,4.0,206.7,0.57,18.3,27.1,"13:07:44",1
"17/06/23","13:20",0.0,31.2,46.5,1001.0,228.8,1.2,2.9,226.4,0.56,18.4,27.0,"13:10:32",1
"17/06/23","13:30",0.0,31.5,47.7,1001.0,202.6,1.3,3.6,225.9,0.55,19.1,27.0,"13:22:16",1
"17/06/23","13:40",0.0,31.9,44.3,1000.5,253.2,1.1,3.4,228.3,0.55,18.3,27.0,"13:30:24",1
"17/06/23","13:50",0.0,32.1,43.9,1001.0,187.4,0.7,2.9,209.4,0.55,18.3,26.8,"13:47:12",1
"17/06/23","14:00",0.0,31.8,44.5,1000.5,218.3,1.3,4.2,217.8,0.53,18.3,26.7,"13:56:48",1
"17/06/23","14:10",0.0,32.2,41.7,1000.5,187.3,1.8,4.1,205.7,0.52,17.6,26.9,"14:02:00",1
"17/06/23","14:20",0.0,32.3,45.8,1000.5,163.0,1.6,3.4,198.4,0.52,19.2,26.9,"14:14:08",1
"17/06/23","14:30",0.0,32.3,43.4,1000.8,134.1,1.3,3.3,169.1,0.49,18.3,27.0,"14:28:40",1
"17/06/23","14:40",0.0,31.6,45.0,1000.3,133.3,1.2,2.8,113.9,0.33,18.3,27.2,"14:34:56",1
"17/06/23","14:50",0.0,32.6,42.0,1000.5,147.0,1.0,1.9,196.3,0.42,18.1,27.2,"14:40:08",1
"17/06/23","15:00",0.0,32.3,40.0,1000.3,143.0,0.7,1.8,104.4,0.29,17.0,27.3,"14:51:20",1
"17/06/23","15:10",0.0,33.1,40.2,1000.3,1.4,0.6,2.4,44.4,0.43,17.8,27.4,"15:07:36",1
"17/06/23","15:20",0.0,33.3,37.0,1000.0,6.3,0.7,1.4,6.2,0.41,16.7,27.2,"15:10:56",1
"17/06/23","15:30",0.0,33.1,38.3,1000.3,256.6,0.6,1.2,15.5,0.39,17.0,27.4,"15:20:32",1
"17/06/23","15:40",0.0,32.8,42.1,1000.0,268.4,0.8,2.7,235.8,0.37,18.3,27.2,"15:35:44",1
"17/06/23","15:50",0.0,32.2,40.0,1000.0,165.9,1.7,3.3,195.6,0.34,16.9,27.5,"15:44:32",1
"17/06/23","16:00",0.0,32.4,39.6,999.6,141.1,1.1,2.2,191.4,0.32,17.0,27.4,"15:50:24",1
"17/06/23","16:10",0.0,32.0,37.6,999.8,159.7,1.1,2.2,183.9,0.17,15.8,27.4,"16:01:44",1
"17/06/23","16:20",0.0,32.2,39.1,999.3,237.3,0.7,2.6,219.5,0.26,16.6,27.2,"16:16:32",1
"17/06/23","16:30",0.0,32.4,38.4,999.3,354.4,1.1,2.5,348.0,0.24,16.5,27.3,"16:25:52",1
"17/06/23","16:40",0.0,32.5,38.9,999.6,227.9,0.3,1.3,226.6,0.16,16.8,27.4,"16:33:52",1
"17/06/23","16:50",0.0,31.7,43.1,999.1,206.7,1.0,2.5,214.1,0.09,17.7,27.0,"16:47:12",1
"17/06/23","17:00",0.0,31.2,45.0,998.6,223.0,0.8,2.8,228.0,0.13,17.9,27.2,"16:56:40",1
"17/06/23","17:10",0.0,30.8,45.3,998.4,270.0,0.7,2.5,338.2,0.08,17.6,26.8,"17:02:48",1
"17/06/23","17:20",0.0,30.7,47.3,998.4,242.5,0.6,1.2,311.2,0.09,18.2,27.1,"17:11:20",1
"17/06/23","17:30",0.0,31.4,50.8,998.6,28.0,0.6,2.0,26.9,0.08,20.0,27.1,"17:27:04",1
"17/06/23","17:40",0.0,31.6,46.3,998.9,27.2,0.8,1.8,6.6,0.06,18.7,27.0,"17:31:52",1
"17/06/23","17:50",0.0,31.6,47.6,998.6,93.7,1.0,2.2,119.5,0.09,19.2,27.1,"17:45:12",1
"17/06/23","18:00",0.0,31.1,48.1,998.4,54.6,1.1,3.2,92.3,0.07,18.9,27.1,"17:52:40",1
"17/06/23","18:10",0.0,30.5,48.8,998.9,60.9,1.0,3.1,5.6,0.05,18.6,26.7,"18:00:48",1
"17/06/23","18:20",0.0,29.9,51.5,998.6,44.0,0.7,1.8,19.0,0.01,18.9,26.9,"18:15:28",1
"17/06/23","18:30",0.0,29.4,54.4,998.6,38.9,0.6,1.7,48.7,0.01,19.3,26.7,"18:24:00",1
"17/06/23","18:40",0.0,28.8,59.9,998.4,354.7,1.0,1.8,338.0,0.00,20.3,26.6,"18:38:16",1
"17/06/23","18:50",0.0,28.0,61.6,998.4,340.5,1.0,1.9,338.5,0.00,20.0,26.6,"18:48:00",1
"17/06/23","19:00",0.0,27.6,61.0,998.6,44.3,0.5,1.6,60.3,0.00,19.4,26.2,"18:59:20",1
"17/06/23","19:10",0.0,27.6,61.0,998.9,31.7,0.6,1.6,1.6,0.00,19.4,26.4,"19:06:32",1
"17/06/23","19:20",0.0,27.6,58.8,999.1,49.9,1.0,2.7,88.7,0.00,18.9,26.2,"19:10:56",1
"17/06/23","19:30",0.0,27.2,55.7,998.9,95.3,0.6,2.5,124.7,0.00,17.6,26.0,"19:27:28",1
"17/06/23","19:40",0.0,27.0,55.5,999.1,128.4,0.8,2.8,117.1,0.00,17.4,26.1,"19:34:16",1
"17/06/23","19:50",0.0,26.8,55.9,998.9,89.1,0.6,1.3,89.4,0.00,17.3,25.8,"19:41:28",1
"17/06/23","20:00",0.0,26.6,59.5,999.3,91.2,0.6,1.6,334.8,0.00,18.1,25.7,"19:50:02",1
"17/06/23","20:10",0.0,26.0,62.8,999.6,336.0,1.1,2.1,343.5,0.00,18.4,25.4,"20:01:04",1
"17/06/23","20:20",0.0,25.4,65.3,999.3,327.3,1.2,2.1,336.5,0.00,18.5,25.4,"20:19:20",1
"17/06/23","20:30",0.0,24.9,66.7,999.8,350.3,1.2,2.2,340.8,0.00,18.3,25.3,"20:21:28",1
"17/06/23","20:40",0.0,24.6,67.4,1000.0,331.1,1.1,2.6,342.6,0.00,18.2,25.2,"20:34:16",1
"17/06/23","20:50",0.0,24.5,67.7,999.8,344.0,1.2,2.4,331.4,0.00,18.2,25.2,"20:45:04",1
"17/06/23","21:00",0.0,24.4,68.7,1000.3,340.0,1.2,2.4,355.2,0.00,18.3,24.9,"20:52:08",1
"17/06/23","21:10",0.0,23.8,69.8,1000.3,327.5,1.1,1.9,340.0,0.00,18.0,25.1,"21:07:36",1
"17/06/23","21:20",0.0,23.6,70.7,1000.3,326.3,1.6,2.6,336.1,0.00,18.0,24.7,"21:14:40",1
"17/06/23","21:30",0.0,23.5,71.0,1000.3,318.0,1.0,2.7,328.1,0.00,18.0,24.6,"21:22:24",1
"17/06/23","21:40",0.0,23.2,71.9,1000.3,324.6,1.0,2.1,329.3,0.00,17.9,24.6,"21:35:20",1
"17/06/23","21:50",0.0,23.0,72.6,1000.3,304.4,0.8,1.7,318.5,0.00,17.9,24.7,"21:49:20",1
"17/06/23","22:00",0.0,22.8,73.2,1000.5,313.3,1.3,2.1,326.2,0.00,17.8,24.5,"21:51:20",1
"17/06/23","22:10",0.0,22.7,75.3,1000.5,286.0,1.0,1.9,308.5,0.00,18.1,24.4,"22:04:48",1
"17/06/23","22:20",0.0,22.6,76.2,1000.8,296.1,1.5,2.4,322.8,0.00,18.2,24.4,"22:10:02",1
"17/06/23","22:30",0.0,22.5,76.8,1000.3,286.7,1.1,2.4,323.4,0.00,18.3,24.0,"22:20:08",1
"17/06/23","22:40",0.0,22.4,77.6,1000.8,303.9,1.5,1.8,313.6,0.00,18.3,24.1,"22:35:28",1
"17/06/23","22:50",0.0,22.3,78.0,1000.5,291.6,1.5,2.5,319.8,0.00,18.3,23.7,"22:41:04",1
"17/06/23","23:00",0.0,22.3,78.4,1000.5,292.3,1.2,2.4,311.4,0.00,18.4,24.0,"22:52:32",1
"17/06/23","23:10",0.0,22.2,78.7,1000.8,300.8,1.3,2.1,324.3,0.00,18.4,23.8,"23:05:36",1
"17/06/23","23:20",0.0,22.1,78.9,1000.5,295.3,1.5,2.7,327.9,0.00,18.3,23.8,"23:13:28",1
"17/06/23","23:30",0.0,22.0,79.0,1000.8,289.5,1.0,1.8,313.4,0.00,18.2,23.6,"23:22:08",1
"17/06/23","23:40",0.0,21.9,79.2,1001.0,286.7,1.3,2.2,319.4,0.00,18.2,23.6,"23:36:48",1
"17/06/23","23:50",0.0,21.7,79.4,1001.0,305.3,1.2,2.0,307.4,0.00,18.0,23.6,"23:48:56",1
"17/06/23","24:00",0.0,21.6,80.0,1001.0,301.8,1.2,1.8,316.0,0.00,18.0,23.5,"23:51:12",1
